Theta_e
315 315 315 315 316 314 314 314 313 313 313 313 313 313 312 312 312 312 312 312 313 313 314 314 314 313 310 298 296 307 315 313 319 312 309 305 304 302 294 294 294 293 295 297 298 297 296
315 315 315 315 313 313 313 312 312 312 312 313 312 312 311 311 311 311 311 312 313 313 313 313 313 314 302 289 304 306 307 308 314 310 308 306 302 303 297 293 293 294 294 295 297 297 297
315 315 315 314 313 312 312 312 311 311 312 312 311 311 311 311 311 311 312 312 312 312 314 316 316 310 300 294 306 307 307 305 314 311 306 310 305 300 298 293 295 294 290 293 293 294 294
314 315 313 313 312 312 312 311 311 311 312 311 311 311 311 311 311 311 311 310 311 314 317 317 315 306 293 306 307 304 302 303 306 314 309 312 307 300 296 296 293 289 289 284 291 293 293
313 313 312 312 312 311 311 311 311 311 311 311 310 311 311 311 311 310 310 309 312 317 316 314 305 300 292 306 298 300 299 299 301 312 310 308 303 300 295 290 287 286 283 282 286 292 292
313 312 311 311 311 311 310 311 311 311 311 310 310 310 310 310 310 309 308 306 305 302 300 309 299 291 293 292 297 299 299 299 299 306 305 304 298 292 289 290 281 282 281 282 283 288 290
311 311 310 310 310 310 311 311 310 311 310 310 310 310 310 310 309 307 300 294 290 288 290 286 288 288 292 297 300 293 295 297 299 299 293 295 291 287 289 290 290 288 285 284 285 289 287
310 310 310 309 310 310 310 310 310 310 310 309 309 309 310 309 308 305 297 290 291 293 286 291 291 291 294 296 291 290 293 291 291 288 290 289 285 290 292 291 289 287 285 284 287 289 287
309 309 309 309 310 310 310 310 310 310 309 309 309 309 309 308 305 297 292 292 297 298 285 286 292 291 290 293 290 286 289 287 288 285 286 284 288 291 289 287 286 286 284 284 284 287 288
308 308 308 309 309 309 309 309 309 309 308 308 308 308 308 307 294 293 289 294 296 300 276 283 286 288 288 289 285 290 290 287 285 284 286 285 290 287 284 282 282 278 287 286 285 283 279
308 308 308 308 309 309 309 309 309 308 308 307 308 307 308 304 291 288 292 294 295 296 270 283 285 292 288 283 283 284 290 285 281 281 282 280 282 281 279 281 282 280 285 282 284 283 281
307 308 308 308 308 308 308 308 308 308 307 308 307 306 305 295 290 292 293 293 292 277 265 279 283 280 280 283 282 285 285 286 287 281 280 279 283 284 283 282 281 284 280 279 281 283 275
307 308 308 307 307 307 307 307 307 307 307 307 306 304 299 296 287 293 291 287 275 270 279 276 276 279 279 277 278 279 279 276 277 273 273 277 278 282 285 277 281 280 274 270 272 274 273
307 308 307 307 307 307 307 307 307 306 306 307 305 299 295 293 291 289 286 279 269 276 275 279 278 278 275 277 276 277 276 273 278 276 273 270 269 277 280 278 275 276 274 268 266 268 270
306 306 306 306 306 306 306 306 306 306 306 306 300 288 288 291 291 286 279 270 273 275 278 277 277 272 273 277 275 274 273 273 275 278 272 271 271 279 279 280 278 275 272 278 269 272 271
306 306 306 305 305 306 306 305 305 305 306 304 286 283 285 291 288 283 276 275 276 280 280 278 272 274 270 272 272 271 272 276 277 280 280 272 268 275 278 280 280 276 279 271 272 266 267
305 305 305 305 305 304 304 304 304 304 304 301 283 278 285 289 286 279 271 273 277 281 281 277 273 273 272 272 272 270 271 276 278 278 278 275 272 271 275 274 273 275 269 271 271 271 265
305 304 305 304 303 303 302 303 303 303 303 292 282 275 287 286 277 274 273 276 282 280 280 278 277 276 272 274 273 272 272 274 280 278 274 275 268 267 270 275 275 271 267 264 266 265 268
304 304 303 303 302 301 302 302 302 302 302 287 279 279 286 284 272 273 276 277 279 279 279 278 277 279 276 274 270 273 274 281 280 278 275 275 272 266 268 271 273 265 264 264 263 264 260
303 303 303 302 301 301 301 301 301 300 301 285 278 273 279 279 279 274 275 275 275 281 279 280 278 278 275 273 275 270 273 278 279 278 283 280 272 268 264 267 269 263 261 262 263 261 257
302 302 301 301 301 301 300 300 300 299 299 285 278 275 278 272 276 275 276 276 274 275 279 280 277 277 277 269 271 270 273 274 276 280 277 277 265 266 262 262 262 261 259 259 257 259 258
302 301 301 301 301 300 300 299 299 299 297 284 276 274 276 274 276 274 275 272 275 275 277 275 275 274 275 269 273 268 270 271 270 273 273 276 269 268 260 261 260 256 259 258 257 257 258
302 302 301 301 301 299 299 299 299 298 294 282 283 283 280 275 276 270 272 272 274 274 274 278 274 269 268 273 273 273 275 270 268 266 264 265 261 267 258 262 262 254 254 257 256 256 256
301 301 301 300 300 300 299 298 298 298 295 286 284 282 275 268 272 272 272 271 271 272 267 274 275 265 273 276 275 273 271 269 268 265 265 260 262 266 261 262 250 256 259 259 256 256 257
301 300 300 299 298 298 297 297 296 298 296 287 287 281 276 263 269 270 271 269 269 268 267 272 274 272 274 272 266 264 269 269 266 265 262 260 258 258 259 253 254 257 256 255 254 254 258
299 299 298 297 296 296 295 295 296 297 296 286 283 285 275 265 264 270 268 267 261 261 263 269 273 273 273 264 262 259 258 261 258 259 264 260 258 256 255 253 250 254 258 260 257 250 258
298 297 296 296 295 295 295 296 297 296 295 286 281 285 273 264 265 266 261 262 265 261 261 264 265 267 269 260 258 255 257 255 250 250 251 252 251 251 251 246 249 255 257 259 250 251 257
296 295 295 295 295 295 296 295 295 295 293 284 280 281 274 265 263 266 268 262 262 259 253 260 261 263 262 259 257 259 252 253 250 249 248 246 243 244 245 247 250 257 256 252 251 252 255
295 294 294 294 295 296 295 294 293 295 292 287 277 280 278 269 265 270 268 268 265 263 261 258 262 261 260 256 256 256 253 252 247 246 251 248 247 245 247 250 247 248 250 250 251 252 255
Wind_Speed
12 13 14 16 17 17 18 19 20 20 21 22 23 23 24 25 26 26 26 26 26 23 20 17 14 9 2 2 10 5 16 16 6 11 15 12 10 11 11 6 7 14 13 4 10 8 7
12 13 15 16 17 18 19 20 20 21 22 23 24 25 25 26 27 27 27 26 25 25 23 18 11 6 4 4 3 6 10 7 3 6 8 8 9 6 5 5 11 3 5 18 13 9 6
13 14 15 16 17 18 19 20 21 21 22 24 25 26 27 27 27 27 27 26 27 21 13 8 6 8 3 10 5 8 9 4 2 5 6 8 1 6 4 3 6 6 18 19 11 6 10
13 14 15 15 17 18 18 19 20 21 22 23 25 26 26 26 26 27 28 28 16 9 6 8 12 5 6 4 6 8 8 7 4 5 4 6 5 4 2 5 6 3 3 3 2 16 7
13 14 15 16 17 18 19 20 20 21 23 24 25 25 25 26 25 23 28 17 10 7 6 8 3 4 6 6 10 12 4 6 7 2 4 3 6 6 4 3 6 5 14 8 5 11 8
13 13 14 15 16 18 18 19 20 22 23 24 25 25 25 25 24 23 28 6 10 6 7 2 3 1 6 6 7 8 6 3 3 1 2 4 4 4 3 10 17 8 9 6 5 3 14
12 13 14 15 16 17 18 19 20 22 23 24 24 25 24 24 17 22 18 5 10 6 11 2 4 2 6 9 4 15 8 6 2 1 3 3 7 13 17 15 18 16 18 18 2 4 3
12 13 14 15 16 17 18 19 21 21 22 23 23 23 24 24 8 14 8 8 3 6 9 4 4 5 7 2 4 14 13 6 4 3 3 3 14 13 12 8 15 19 22 27 17 15 14
11 12 13 14 16 17 18 19 20 21 23 24 25 23 23 24 4 6 4 8 4 6 2 7 2 4 7 4 3 11 10 7 3 3 4 6 6 11 7 7 9 11 10 14 15 8 14
10 12 13 14 15 17 18 19 20 21 22 24 26 24 22 21 6 5 3 3 4 3 3 7 6 6 10 8 2 6 8 3 6 4 6 7 2 7 8 10 7 6 6 13 14 10 8
9 11 13 13 15 17 18 19 21 23 23 24 24 21 17 8 3 3 5 8 4 2 5 8 5 2 10 9 8 8 10 7 5 9 2 6 8 13 7 4 2 7 13 11 15 9 5
9 11 12 13 15 16 18 20 22 23 24 24 24 19 11 3 2 3 6 5 2 3 5 4 5 10 8 7 8 8 5 6 4 4 4 7 5 2 3 5 8 3 8 17 10 9 10
8 9 12 13 14 17 18 20 22 24 25 26 25 14 3 1 5 12 5 2 5 4 4 9 6 10 5 11 7 9 11 8 6 6 7 6 6 4 2 8 7 2 6 5 6 10 8
8 11 12 13 15 17 19 21 23 25 27 27 24 7 3 0 6 5 2 6 4 3 5 4 7 7 5 12 6 11 11 9 5 4 4 4 6 6 3 2 6 10 3 3 6 5 10
9 10 11 13 15 18 19 20 22 24 25 25 14 4 4 9 10 2 7 7 1 3 3 7 9 4 4 5 3 8 6 3 3 5 8 5 4 13 13 4 3 4 3 3 4 10 5
7 9 11 13 16 17 19 21 23 24 25 21 3 3 4 15 8 7 7 4 2 3 4 3 2 4 6 6 6 6 5 4 6 4 2 6 8 7 6 5 2 2 4 5 3 5 4
7 10 12 13 14 17 19 20 22 24 27 14 5 5 5 13 5 9 5 4 3 4 4 3 3 5 5 4 3 3 5 10 4 8 5 3 1 12 4 2 5 4 4 4 2 2 6
8 10 11 13 16 16 18 20 22 24 25 9 3 5 7 7 8 2 3 5 5 4 2 3 2 4 4 4 6 4 6 5 8 4 7 4 3 6 7 8 12 10 5 3 2 5 3
8 8 10 13 13 14 17 19 22 23 14 2 3 2 6 7 5 4 5 4 2 4 4 3 3 3 2 3 5 5 4 3 8 15 6 3 4 6 4 1 4 10 9 6 4 3 3
7 8 9 10 12 14 17 19 21 24 14 5 4 4 5 5 1 3 6 4 5 4 5 4 6 5 2 4 6 8 9 6 19 15 18 8 3 2 2 5 5 6 17 17 2 3 3
5 7 7 8 11 14 15 17 20 25 15 5 4 1 1 4 5 4 3 5 5 11 3 4 4 5 7 4 8 1 3 16 7 10 8 6 3 10 13 17 22 15 15 17 18 10 4
6 5 6 9 10 12 13 14 18 19 12 6 4 3 3 2 4 5 8 5 10 10 3 7 9 13 9 3 6 11 16 9 4 9 9 5 4 7 7 16 21 20 18 11 14 12 9
6 7 8 9 9 9 12 14 13 13 9 4 2 3 4 8 3 4 4 7 8 9 8 6 6 7 6 5 13 17 10 12 6 5 8 6 3 3 4 11 3 9 13 10 10 13 4
6 7 7 7 8 11 11 12 13 12 7 4 2 2 5 2 4 4 8 11 11 10 5 7 6 5 7 17 5 9 13 11 9 11 10 5 3 4 3 2 5 4 5 8 13 10 9
7 7 8 9 10 10 10 9 9 9 12 5 3 4 4 4 4 5 10 8 9 9 5 4 6 10 14 7 3 3 2 1 6 9 15 9 2 5 3 4 3 3 5 3 4 4 6
7 7 9 9 9 9 8 8 7 10 14 5 4 3 5 8 7 7 4 4 3 5 8 4 6 9 7 3 5 5 5 5 8 16 13 11 9 5 4 4 2 2 8 3 1 1 7
8 8 9 9 8 7 7 8 14 13 13 6 3 5 7 7 4 3 3 3 4 3 4 5 10 10 7 5 5 5 3 1 5 6 10 9 8 7 5 3 4 2 9 2 3 3 5
8 8 9 8 8 7 10 13 11 10 10 7 4 3 7 5 3 2 3 1 4 3 2 6 5 6 6 8 4 3 4 1 5 1 2 1 3 3 3 5 3 3 2 4 5 4 2
8 8 9 8 7 11 14 13 13 13 14 8 5 4 5 8 6 3 4 5 6 6 4 4 3 1 2 4 3 3 3 4 2 3 3 4 5 4 6 6 5 4 5 5 4 4 3
Wind_Direction
19 15 10 7 6 3 3 359 359 355 353 352 350 347 345 340 336 331 327 323 320 316 309 301 293 283 193 252 256 304 340 330 160 153 179 179 173 191 198 202 216 241 250 238 243 229 234
14 15 11 10 3 2 2 358 359 358 354 351 350 348 344 339 335 330 325 322 318 314 307 298 274 180 158 264 253 311 325 319 203 173 182 163 200 187 229 212 209 295 250 254 244 237 233
13 11 12 7 5 1 1 2 359 356 354 354 350 347 344 342 339 332 326 325 321 314 316 305 205 162 186 248 319 331 319 295 251 189 178 206 190 169 181 273 247 270 274 272 244 213 241
12 14 8 4 4 3 1 2 359 357 356 354 350 348 346 344 343 336 328 331 335 346 31 94 130 150 241 249 303 334 329 315 229 210 180 200 176 213 205 315 349 295 245 232 251 193 208
10 13 10 7 6 3 4 2 360 356 355 353 351 348 346 346 343 341 333 344 355 30 112 110 111 93 311 330 4 319 331 295 310 244 219 146 139 213 178 179 291 197 257 239 295 184 177
9 12 9 9 3 6 4 2 359 355 355 354 350 348 347 349 344 346 336 346 28 17 358 305 61 11 4 313 304 314 296 259 278 133 165 178 215 210 176 206 225 197 240 229 216 274 203
11 10 8 6 7 6 3 1 358 356 354 354 352 347 346 349 347 355 352 20 13 351 38 58 279 216 283 307 298 348 335 340 350 354 227 241 231 234 248 236 255 278 272 267 177 309 248
12 10 10 7 4 4 5 1 358 356 355 354 352 349 344 349 352 7 12 63 94 251 320 316 258 275 258 292 308 353 356 37 2 300 271 273 256 263 257 259 248 248 256 263 273 248 256
11 10 13 6 6 6 3 2 358 356 355 353 352 350 348 343 355 39 74 103 276 152 253 298 256 332 334 353 350 350 10 326 284 262 259 247 288 320 324 331 299 274 258 268 256 264 254
12 12 11 10 7 6 4 1 357 357 357 355 351 350 348 339 37 324 53 25 316 174 36 356 354 2 343 316 77 355 2 338 317 306 303 260 336 18 340 317 3 291 11 316 271 243 247
10 12 17 11 10 10 5 1 358 357 354 354 350 345 342 31 253 24 304 334 299 152 334 348 354 340 328 44 275 346 338 347 308 298 324 282 339 325 332 357 272 274 315 316 288 232 233
15 15 18 16 13 10 7 4 359 356 353 350 347 342 341 14 38 247 326 315 92 43 277 356 21 349 1 3 335 324 329 348 270 315 11 284 288 352 214 307 302 291 315 301 231 235 232
23 18 27 18 14 13 9 6 1 356 350 347 346 344 56 27 306 321 328 66 24 97 340 358 342 338 337 346 342 13 337 353 9 355 343 316 329 321 202 339 326 347 324 315 238 215 246
28 37 27 21 18 13 12 7 1 355 348 343 342 359 353 217 300 311 60 42 49 36 3 351 330 332 40 7 345 340 343 347 6 46 297 337 331 341 4 257 258 306 227 275 296 334 316
43 40 30 26 21 17 13 9 2 356 347 342 347 346 18 331 340 23 61 50 332 9 332 325 319 360 325 6 331 349 319 290 2 39 4 315 268 312 314 279 185 322 305 207 234 245 253
53 45 37 31 24 18 15 8 1 353 347 350 35 21 350 330 335 46 62 91 21 32 337 7 332 22 316 324 344 13 316 285 340 39 52 278 293 276 308 312 126 118 325 10 350 300 224
59 50 41 33 27 19 14 9 4 356 349 351 43 44 279 335 37 43 72 13 341 324 14 331 298 301 272 299 303 289 270 291 21 330 313 287 255 296 314 308 332 0 8 350 260 266 345
66 55 45 38 26 26 19 15 8 0 351 36 35 41 315 359 48 32 37 336 321 306 335 311 257 244 239 320 294 265 246 227 1 352 331 305 219 276 271 334 75 61 19 21 99 312 6
74 59 54 46 34 29 22 17 9 2 18 47 62 308 328 50 66 6 333 328 280 316 314 321 277 244 268 262 296 228 269 300 8 343 306 273 224 290 315 135 99 59 16 325 264 286 59
77 63 53 49 38 32 27 21 14 5 12 81 70 37 9 40 52 102 18 333 313 292 273 252 266 267 280 248 217 277 292 316 340 305 302 353 335 204 295 360 33 51 29 15 9 53 97
90 68 56 47 44 39 29 21 18 7 8 90 29 76 184 2 4 8 4 352 312 351 309 328 296 281 292 309 315 223 320 324 322 352 354 308 251 93 80 76 76 68 49 38 53 13 48
87 66 63 58 54 42 27 19 19 20 21 73 94 79 14 42 345 21 6 333 11 340 280 332 352 334 334 286 354 318 327 335 11 315 340 333 272 132 81 98 88 66 39 46 37 20 66
83 72 67 67 52 33 18 24 18 25 46 80 15 10 113 8 12 51 21 329 345 0 306 42 18 349 343 3 317 296 276 81 61 11 331 334 324 318 155 182 305 36 5 56 74 37 19
94 73 66 56 32 28 22 18 19 43 64 108 175 119 77 17 43 43 351 351 337 349 271 299 18 52 283 319 313 57 96 111 85 60 25 327 358 13 84 178 35 121 38 78 94 52 31
86 70 58 47 38 33 31 29 35 38 95 80 348 86 106 90 333 358 351 357 324 312 326 312 353 333 297 311 29 50 242 291 52 46 27 30 358 64 101 55 134 164 17 349 3 60 26
88 77 65 55 49 46 45 48 35 65 108 85 40 30 90 117 7 318 327 2 338 322 334 319 320 316 350 54 53 37 35 338 335 341 15 14 23 86 37 94 119 354 339 319 73 279 12
88 78 72 67 64 62 64 58 72 77 89 99 60 19 84 98 324 28 52 324 309 328 273 310 336 341 25 12 54 41 23 196 23 8 337 349 358 43 15 91 299 279 310 342 85 246 331
88 88 83 80 79 82 77 66 68 87 104 91 61 20 111 97 311 46 18 47 345 48 95 288 15 1 6 41 55 7 56 337 73 259 327 147 55 341 351 51 343 11 342 133 218 279 225
101 93 92 93 104 93 84 76 73 118 107 93 86 36 69 87 174 168 187 182 173 201 159 321 171 296 213 78 37 63 36 29 162 338 11 17 168 208 162 220 235 260 182 238 186 210 263